Date String (YYYY-MM-DD hh:mm:ss) UTC,Instrument flags,absolute air pressure of the measurement (hPa),sample flow rate (lpm),inlet stack bypass flow (lpm),air temperature of the measurement (°C),ambient temperature measured by the external sensor (°C),aerosol sample conditioner tube jacket temperature (°C),OPC LED temperature (°C),internal box temperature (°C),relative humidity of the measurement (%),span deviation,mass concentration of particles derived from Lorenz-Mie calculation of OPC scattering (μg/m³),mass concentration of particles derived from Lorenz-Mie calculation of OPC scattering (μg/m³),mass concentration of particles derived from Lorenz-Mie calculation of OPC scattering (μg/m³)
DateTimeUTC,F1_M11,P_M11,Q1_M11,Q2_M11,T1_M11,T2_M11,T3_M11,T4_M11,T5_M11,U1_M11,ZSPAN_M11,X0_M11,X2_M11,X1_M11
2023-08-18 21:00:00,SystemResetWarning,0828.9,4.99,000.00,027.5,025.7,000.0,035.7,029.2,26.4,0000.0,0006.36,0002.90,0002.35
2023-08-18 21:01:00,SystemResetWarning,0829.0,5.00,000.00,027.5,026.1,000.0,035.7,029.3,26.7,0000.0,0006.39,0002.92,0002.35
2023-08-18 21:02:00,SystemResetWarning,0829.0,4.99,000.00,027.6,025.5,000.0,035.7,029.3,26.9,0000.0,0006.39,0002.92,0002.35
2023-08-18 21:03:00,SystemResetWarning,0828.9,4.99,000.00,027.5,024.2,000.0,035.6,029.1,27.3,0000.0,0006.23,0002.89,0002.34
2023-08-18 21:04:00,SystemResetWarning,0829.0,5.00,000.00,027.5,024.1,000.0,035.6,029.0,27.4,0000.0,0004.61,0002.87,0002.35
2023-08-18 21:05:00,SystemResetWarning,0828.9,5.02,000.00,027.4,024.4,000.0,035.6,029.0,27.7,0000.0,0004.10,0002.78,0002.32
2023-08-18 21:06:00,SystemResetWarning,0829.0,5.00,000.00,027.4,024.8,000.0,035.6,029.0,29.0,0000.0,0003.93,0002.72,0002.31
2023-08-18 21:07:00,SystemResetWarning,0829.1,5.00,000.00,027.5,025.3,000.0,035.7,029.1,29.3,0000.0,0003.74,0002.72,0002.31
2023-08-18 21:08:00,SystemResetWarning,0829.1,5.00,000.00,027.5,025.7,000.0,035.7,029.3,27.6,0000.0,0003.51,0002.69,0002.28
2023-08-18 21:09:00,SystemResetWarning,0829.2,5.00,000.00,027.5,025.8,000.0,035.7,029.3,27.3,0000.0,0003.59,0002.73,0002.27
2023-08-18 21:10:00,SystemResetWarning,0829.2,4.99,000.00,027.5,024.5,000.0,035.6,029.1,28.2,0000.0,0003.77,0002.78,0002.26
2023-08-18 21:11:00,SystemResetWarning,0829.3,5.01,000.00,027.5,023.8,000.0,035.6,028.9,29.2,0000.0,0004.28,0002.81,0002.26
2023-08-18 21:12:00,SystemResetWarning,0829.3,5.01,000.00,027.4,024.0,000.0,035.6,028.9,31.0,0000.0,0004.90,0002.82,0002.26
2023-08-18 21:13:00,SystemResetWarning,0829.4,5.01,000.00,027.4,024.4,000.0,035.6,028.9,29.8,0000.0,0004.94,0002.82,0002.25
2023-08-18 21:14:00,SystemResetWarning,0829.3,5.00,000.00,027.4,024.8,000.0,035.6,029.0,31.3,0000.0,0005.12,0002.90,0002.25
2023-08-18 21:15:00,SystemResetWarning,0829.4,5.01,000.00,027.4,025.3,000.0,035.7,029.1,31.0,0000.0,0005.09,0002.90,0002.25
2023-08-18 21:16:00,SystemResetWarning,0829.6,4.99,000.00,027.5,025.7,000.0,035.7,029.3,33.9,0000.0,0005.06,0002.89,0002.24
2023-08-18 21:17:00,SystemResetWarning,0829.7,4.98,000.00,027.5,025.0,000.0,035.6,029.2,33.3,0000.0,0006.36,0002.89,0002.24
2023-08-18 21:18:00,SystemResetWarning,0829.7,5.00,000.00,027.5,023.8,000.0,035.6,028.9,32.4,0000.0,0006.98,0002.97,0002.25
2023-08-18 21:19:00,SystemResetWarning,0829.7,5.03,000.00,027.4,023.5,000.0,035.5,028.8,35.3,0000.0,0007.11,0002.99,0002.25
2023-08-18 21:20:00,SystemResetWarning,0829.6,4.96,000.00,027.5,023.8,000.0,035.5,028.8,34.5,0000.0,0007.10,0002.95,0002.24
2023-08-18 21:21:00,SystemResetWarning,0829.5,5.04,000.00,027.6,024.3,000.0,035.6,028.9,37.5,0000.0,0006.81,0002.85,0002.23
2023-08-18 21:22:00,SystemResetWarning,0829.6,4.98,000.00,027.9,024.8,000.0,035.6,029.1,36.6,0000.0,0006.63,0002.77,0002.22
2023-08-18 21:23:00,SystemResetWarning,0829.7,4.99,000.00,028.3,025.2,000.0,035.7,029.4,36.1,0000.0,0005.54,0002.71,0002.20
2023-08-18 21:24:00,SystemResetWarning,0829.7,5.03,000.00,028.7,025.6,000.0,035.8,029.6,34.2,0000.0,0005.53,0002.71,0002.18
2023-08-18 21:25:00,SystemResetWarning,0829.8,4.96,000.00,029.1,025.7,000.0,035.9,029.7,33.5,0000.0,0006.44,0002.70,0002.17
2023-08-18 21:26:00,SystemResetWarning,0829.8,5.01,000.00,029.3,024.4,000.0,035.9,029.4,32.8,0000.0,0006.64,0002.70,0002.15
2023-08-18 21:27:00,SystemResetWarning,0829.7,5.00,000.00,029.3,023.6,000.0,036.0,029.2,32.3,0000.0,0006.61,0002.68,0002.15
2023-08-18 21:28:00,SystemResetWarning,0829.7,5.00,000.00,029.3,023.7,000.0,036.1,029.1,33.3,0000.0,0005.46,0002.69,0002.15
2023-08-18 21:29:00,SystemResetWarning,0829.8,5.02,000.00,029.2,024.0,000.0,036.2,029.0,34.1,0000.0,0004.80,0002.63,0002.12
2023-08-18 21:30:00,SystemResetWarning,0829.7,5.01,000.00,029.2,024.5,000.0,036.4,029.2,33.6,0000.0,0005.38,0002.64,0002.10
2023-08-18 21:31:00,SystemResetWarning,0829.7,4.99,000.00,029.2,025.0,000.0,036.5,029.3,34.5,0000.0,0005.89,0002.64,0002.10
2023-08-18 21:32:00,SystemResetWarning,0829.7,4.99,000.00,029.3,025.4,000.0,036.6,029.5,35.3,0000.0,0007.76,0002.68,0002.09
2023-08-18 21:33:00,SystemResetWarning,0829.7,5.04,000.00,029.4,025.5,000.0,036.7,029.6,35.1,0000.0,0007.84,0002.72,0002.08
2023-08-18 21:34:00,SystemResetWarning,0829.7,4.96,000.00,029.6,024.3,000.0,036.6,029.5,33.4,0000.0,0007.85,0002.71,0002.06
2023-08-18 21:35:00,SystemResetWarning,0829.7,5.03,000.00,029.7,023.6,000.0,036.6,029.3,31.1,0000.0,0008.18,0002.71,0002.07
2023-08-18 21:36:00,SystemResetWarning,0829.8,5.00,000.00,029.7,023.6,000.0,036.7,029.1,31.3,0000.0,0008.20,0002.70,0002.07
2023-08-18 21:37:00,SystemResetWarning,0829.9,5.00,000.00,029.6,024.0,000.0,036.8,029.1,31.2,0000.0,0007.97,0002.66,0002.07
2023-08-18 21:38:00,SystemResetWarning,0830.0,5.00,000.00,029.5,024.5,000.0,036.8,029.3,34.1,0000.0,0008.06,0002.66,0002.07
2023-08-18 21:39:00,SystemResetWarning,0830.0,5.01,000.00,029.5,024.9,000.0,036.9,029.4,33.5,0000.0,0008.12,0002.68,0002.06
2023-08-18 21:40:00,SystemResetWarning,0830.0,4.99,000.00,029.5,025.4,000.0,037.0,029.5,30.0,0000.0,0008.20,0002.73,0002.07
2023-08-18 21:41:00,SystemResetWarning,0830.0,5.00,000.00,029.6,025.8,000.0,037.1,029.7,28.5,0000.0,0008.05,0002.79,0002.11
2023-08-18 21:42:00,SystemResetWarning,0830.0,5.00,000.00,029.6,025.9,000.0,037.1,029.8,30.5,0000.0,0007.75,0002.81,0002.12
2023-08-18 21:43:00,SystemResetWarning,0830.0,4.99,000.00,029.6,024.6,000.0,037.0,029.6,31.8,0000.0,0006.38,0002.91,0002.15
2023-08-18 21:44:00,SystemResetWarning,0830.0,5.00,000.00,029.5,023.7,000.0,037.0,029.4,32.4,0000.0,0007.10,0003.04,0002.20
2023-08-18 21:45:00,SystemResetWarning,0829.9,5.00,000.00,029.4,023.7,000.0,036.9,029.2,30.1,0000.0,0007.73,0003.20,0002.32
2023-08-18 21:46:00,SystemResetWarning,0829.9,5.01,000.00,029.3,024.0,000.0,037.0,029.1,29.0,0000.0,0008.13,0003.33,0002.42
2023-08-18 21:47:00,SystemResetWarning,0829.8,5.00,000.00,029.2,024.5,000.0,037.0,029.3,29.9,0000.0,0008.81,0003.50,0002.57
2023-08-18 21:48:00,SystemResetWarning,0829.8,5.00,000.00,029.2,024.9,000.0,037.1,029.4,29.2,0000.0,0009.36,0003.70,0002.72
2023-08-18 21:49:00,SystemResetWarning,0829.8,5.00,000.00,029.1,025.4,000.0,037.1,029.5,30.4,0000.0,0009.66,0003.81,0002.78
2023-08-18 21:50:00,SystemResetWarning,0829.7,5.00,000.00,029.2,025.8,000.0,037.1,029.7,28.5,0000.0,0010.29,0003.91,0002.85
2023-08-18 21:51:00,SystemResetWarning,0829.7,5.00,000.00,029.2,025.9,000.0,037.1,029.7,29.9,0000.0,0010.48,0003.96,0002.90
2023-08-18 21:52:00,SystemResetWarning,0829.7,4.98,000.00,029.2,024.7,000.0,037.0,029.5,30.1,0000.0,0010.51,0003.97,0002.89
2023-08-18 21:53:00,SystemResetWarning,0829.7,5.01,000.00,029.1,023.8,000.0,036.9,029.2,31.5,0000.0,0010.55,0003.97,0002.90
2023-08-18 21:54:00,SystemResetWarning,0829.6,5.01,000.00,029.0,023.7,000.0,036.8,029.1,33.8,0000.0,0010.46,0003.97,0002.87
2023-08-18 21:55:00,SystemResetWarning,0829.5,5.00,000.00,028.8,024.0,000.0,036.8,029.0,34.3,0000.0,0010.16,0003.93,0002.83
2023-08-18 21:56:00,SystemResetWarning,0829.4,5.01,000.00,028.8,024.5,000.0,036.9,029.2,34.4,0000.0,0010.11,0003.84,0002.74
2023-08-18 21:57:00,SystemResetWarning,0829.5,5.00,000.00,028.8,024.9,000.0,036.9,029.4,32.9,0000.0,0009.95,0003.80,0002.68
2023-08-18 21:58:00,SystemResetWarning,0829.5,4.99,000.00,028.9,025.4,000.0,036.9,029.6,32.0,0000.0,0009.14,0003.72,0002.58
2023-08-18 21:59:00,SystemResetWarning,0829.4,4.99,000.00,028.9,025.8,000.0,036.9,029.7,35.9,0000.0,0008.76,0003.61,0002.49
